Location: Lynch Observatory
(39.9540°N, 75.1861°W)
Time: 17:56:27
(UTC-04:00)

Hubble Space Telescope - Pass Details

Date: 14 August 2022
Orbit: 532 x 535 km, 28.5° (Epoch: 23 September)

Event Time Altitude Azimuth Distance (km) Brightness Sun altitude
Rises 20:42:02 0° 247° (WSW) 2,666 5.0 -8.5°
Reaches altitude 10° 20:45:55 10° 211° (SSW) 1,774 3.5 -9.2°
Maximum altitude 20:47:02 11° 195° (SSW) 1,715 3.2 -9.4°
Drops below altitude 10° 20:48:08 10° 179° (S) 1,773 3.1 -9.5°
Enters shadow 20:49:50 - 159° (SSE) 2,062 3.3 -9.8°
